Orbital Elements at Epoch 2459200.5 (2020-Dec-17.0) TDB
Reference: JPL 31 (heliocentric ecliptic J2000)
Element | Value | Uncertainty (1-sigma) | Units |
e | .09869403139592398 | 2.4688e-08 | |
a | 2.894314586348336 | 1.2162e-08 | au |
q | 2.608663011693593 | 7.066e-08 | au |
i | 3.202780272815695 | 3.298e-06 | deg |
node | 115.3090078138349 | 5.0171e-05 | deg |
peri | 239.7883890881091 | 5.3653e-05 | deg |
M | 63.11310403550737 | 1.7607e-05 | deg |
tp | 2458885.192670502634 (2020-Feb-05.69267050) | 8.8334e-05 | TDB |
period | 1798.527268682438 4.92 | 1.1336e-05 3.104e-08 | d yr |
n | .2001637708077277 | 1.2616e-09 | deg/d |
Q | 3.179966161003079 | 1.3362e-08 | au |
|
| | Orbit Determination Parameters
Additional Information
|